owner,sensor,date,latitude,longitude,air_temperature,qcFlag 
WAVCIS,ioos:station:WAVCIS:CSI06:1,2016-08-01T00:00:00Z,28.8667,-90.4833,28.86,11111222 
WAVCIS,ioos:station:WAVCIS:CSI06:1,2016-08-01T01:00:00Z,28.8667,-90.4833,29.0,11111222 
WAVCIS,ioos:station:WAVCIS:CSI06:1,2016-08-01T02:00:00Z,28.8667,-90.4833,28.9,11111222 
WAVCIS,ioos:station:WAVCIS:CSI06:1,2016-08-01T03:00:00Z,28.8667,-90.4833,29.15,11111222 
WAVCIS,ioos:station:WAVCIS:CSI06:1,2016-08-01T04:00:00Z,28.8667,-90.4833,29.38,11111222 
WAVCIS,ioos:station:WAVCIS:CSI06:1,2016-08-01T05:00:00Z,28.8667,-90.4833,29.41,11111222 
WAVCIS,ioos:station:WAVCIS:CSI06:1,2016-08-01T06:00:00Z,28.8667,-90.4833,29.33,11111222 
WAVCIS,ioos:station:WAVCIS:CSI06:1,2016-08-01T07:00:00Z,28.8667,-90.4833,29.5,11111222 
WAVCIS,ioos:station:WAVCIS:CSI06:1,2016-08-01T08:00:00Z,28.8667,-90.4833,29.45,11111222 
WAVCIS,ioos:station:WAVCIS:CSI06:1,2016-08-01T09:00:00Z,28.8667,-90.4833,29.25,11111222 
WAVCIS,ioos:station:WAVCIS:CSI06:1,2016-08-01T10:00:00Z,28.8667,-90.4833,29.22,11111222 
WAVCIS,ioos:station:WAVCIS:CSI06:1,2016-08-01T11:00:00Z,28.8667,-90.4833,28.79,11111222 
WAVCIS,ioos:station:WAVCIS:CSI06:1,2016-08-01T12:00:00Z,28.8667,-90.4833,29.12,11111222 
WAVCIS,ioos:station:WAVCIS:CSI06:1,2016-08-01T13:00:00Z,28.8667,-90.4833,30.77,11111222 
WAVCIS,ioos:station:WAVCIS:CSI06:1,2016-08-01T14:00:00Z,28.8667,-90.4833,30.51,11111222 
WAVCIS,ioos:station:WAVCIS:CSI06:1,2016-08-01T15:00:00Z,28.8667,-90.4833,31.08,11111222 
WAVCIS,ioos:station:WAVCIS:CSI06:1,2016-08-01T16:00:00Z,28.8667,-90.4833,30.51,11111222 
WAVCIS,ioos:station:WAVCIS:CSI06:1,2016-08-01T17:00:00Z,28.8667,-90.4833,31.07,11111222 
WAVCIS,ioos:station:WAVCIS:CSI06:1,2016-08-01T18:00:00Z,28.8667,-90.4833,32.62,11111222 
WAVCIS,ioos:station:WAVCIS:CSI06:1,2016-08-01T19:00:00Z,28.8667,-90.4833,32.94,11111222 
WAVCIS,ioos:station:WAVCIS:CSI06:1,2016-08-01T20:00:00Z,28.8667,-90.4833,32.67,11111222 
WAVCIS,ioos:station:WAVCIS:CSI06:1,2016-08-01T21:00:00Z,28.8667,-90.4833,32.62,11111222 
WAVCIS,ioos:station:WAVCIS:CSI06:1,2016-08-01T22:00:00Z,28.8667,-90.4833,31.43,11111222 
WAVCIS,ioos:station:WAVCIS:CSI06:1,2016-08-01T23:00:00Z,28.8667,-90.4833,31.65,11111222 
WAVCIS,ioos:station:WAVCIS:CSI06:1,2016-08-02T00:00:00Z,28.8667,-90.4833,31.48,11111222 
WAVCIS,ioos:station:WAVCIS:CSI06:1,2016-08-02T01:00:00Z,28.8667,-90.4833,30.59,11111222 
WAVCIS,ioos:station:WAVCIS:CSI06:1,2016-08-02T02:00:00Z,28.8667,-90.4833,30.53,11111222 
WAVCIS,ioos:station:WAVCIS:CSI06:1,2016-08-02T03:00:00Z,28.8667,-90.4833,30.56,11111222 
WAVCIS,ioos:station:WAVCIS:CSI06:1,2016-08-02T04:00:00Z,28.8667,-90.4833,30.47,11111222 
WAVCIS,ioos:station:WAVCIS:CSI06:1,2016-08-02T05:00:00Z,28.8667,-90.4833,30.43,11111222 
WAVCIS,ioos:station:WAVCIS:CSI06:1,2016-08-02T06:00:00Z,28.8667,-90.4833,30.28,11111222 
WAVCIS,ioos:station:WAVCIS:CSI06:1,2016-08-02T07:00:00Z,28.8667,-90.4833,30.34,11111222 
WAVCIS,ioos:station:WAVCIS:CSI06:1,2016-08-02T08:00:00Z,28.8667,-90.4833,30.07,11111222 
WAVCIS,ioos:station:WAVCIS:CSI06:1,2016-08-02T09:00:00Z,28.8667,-90.4833,30.02,11111222 
WAVCIS,ioos:station:WAVCIS:CSI06:1,2016-08-02T10:00:00Z,28.8667,-90.4833,30.05,11111222 
WAVCIS,ioos:station:WAVCIS:CSI06:1,2016-08-02T11:00:00Z,28.8667,-90.4833,29.25,11111222 
WAVCIS,ioos:station:WAVCIS:CSI06:1,2016-08-02T12:00:00Z,28.8667,-90.4833,30.19,11111222 
WAVCIS,ioos:station:WAVCIS:CSI06:1,2016-08-02T13:00:00Z,28.8667,-90.4833,31.28,11111222 
WAVCIS,ioos:station:WAVCIS:CSI06:1,2016-08-02T14:00:00Z,28.8667,-90.4833,30.85,11111222 
WAVCIS,ioos:station:WAVCIS:CSI06:1,2016-08-02T15:00:00Z,28.8667,-90.4833,31.9,11111222 
WAVCIS,ioos:station:WAVCIS:CSI06:1,2016-08-02T16:00:00Z,28.8667,-90.4833,31.1,11111222 
WAVCIS,ioos:station:WAVCIS:CSI06:1,2016-08-02T17:00:00Z,28.8667,-90.4833,32.17,11111222 
WAVCIS,ioos:station:WAVCIS:CSI06:1,2016-08-02T18:00:00Z,28.8667,-90.4833,32.8,11111222 
WAVCIS,ioos:station:WAVCIS:CSI06:1,2016-08-02T19:00:00Z,28.8667,-90.4833,33.47,11111222 
WAVCIS,ioos:station:WAVCIS:CSI06:1,2016-08-02T20:00:00Z,28.8667,-90.4833,31.37,11111222 
WAVCIS,ioos:station:WAVCIS:CSI06:1,2016-08-02T21:00:00Z,28.8667,-90.4833,32.12,11111222 
WAVCIS,ioos:station:WAVCIS:CSI06:1,2016-08-02T22:00:00Z,28.8667,-90.4833,32.05,11111222 
WAVCIS,ioos:station:WAVCIS:CSI06:1,2016-08-02T23:00:00Z,28.8667,-90.4833,32.99,11111222 
WAVCIS,ioos:station:WAVCIS:CSI06:1,2016-08-03T00:00:00Z,28.8667,-90.4833,32.77,11111222 
WAVCIS,ioos:station:WAVCIS:CSI06:1,2016-08-03T01:00:00Z,28.8667,-90.4833,30.7,11111222 
WAVCIS,ioos:station:WAVCIS:CSI06:1,2016-08-03T02:00:00Z,28.8667,-90.4833,30.44,11111222 
WAVCIS,ioos:station:WAVCIS:CSI06:1,2016-08-03T03:00:00Z,28.8667,-90.4833,30.48,11111222 
WAVCIS,ioos:station:WAVCIS:CSI06:1,2016-08-03T04:00:00Z,28.8667,-90.4833,30.52,11111222 
WAVCIS,ioos:station:WAVCIS:CSI06:1,2016-08-03T05:00:00Z,28.8667,-90.4833,30.34,11111222 
WAVCIS,ioos:station:WAVCIS:CSI06:1,2016-08-03T06:00:00Z,28.8667,-90.4833,30.38,11111222 
WAVCIS,ioos:station:WAVCIS:CSI06:1,2016-08-03T07:00:00Z,28.8667,-90.4833,30.37,11111222 
WAVCIS,ioos:station:WAVCIS:CSI06:1,2016-08-03T08:00:00Z,28.8667,-90.4833,30.27,11111222 
WAVCIS,ioos:station:WAVCIS:CSI06:1,2016-08-03T09:00:00Z,28.8667,-90.4833,30.28,11111222 
WAVCIS,ioos:station:WAVCIS:CSI06:1,2016-08-03T10:00:00Z,28.8667,-90.4833,29.99,11111222 
WAVCIS,ioos:station:WAVCIS:CSI06:1,2016-08-03T11:00:00Z,28.8667,-90.4833,30.13,11111222 
WAVCIS,ioos:station:WAVCIS:CSI06:1,2016-08-03T12:00:00Z,28.8667,-90.4833,30.22,11111222 
WAVCIS,ioos:station:WAVCIS:CSI06:1,2016-08-03T13:00:00Z,28.8667,-90.4833,30.49,11111222 
WAVCIS,ioos:station:WAVCIS:CSI06:1,2016-08-03T14:00:00Z,28.8667,-90.4833,30.64,11111222 
WAVCIS,ioos:station:WAVCIS:CSI06:1,2016-08-03T15:00:00Z,28.8667,-90.4833,26.02,11111222 
WAVCIS,ioos:station:WAVCIS:CSI06:1,2016-08-03T16:00:00Z,28.8667,-90.4833,24.99,11111222 
WAVCIS,ioos:station:WAVCIS:CSI06:1,2016-08-03T17:00:00Z,28.8667,-90.4833,28.04,11111222 
WAVCIS,ioos:station:WAVCIS:CSI06:1,2016-08-03T18:00:00Z,28.8667,-90.4833,28.64,11111222 
WAVCIS,ioos:station:WAVCIS:CSI06:1,2016-08-03T19:00:00Z,28.8667,-90.4833,29.28,11111222 
WAVCIS,ioos:station:WAVCIS:CSI06:1,2016-08-03T20:00:00Z,28.8667,-90.4833,30.08,11111222 
WAVCIS,ioos:station:WAVCIS:CSI06:1,2016-08-03T21:00:00Z,28.8667,-90.4833,29.43,11111222 
WAVCIS,ioos:station:WAVCIS:CSI06:1,2016-08-03T22:00:00Z,28.8667,-90.4833,30.36,11111222 
WAVCIS,ioos:station:WAVCIS:CSI06:1,2016-08-03T23:00:00Z,28.8667,-90.4833,31.16,11111222 
WAVCIS,ioos:station:WAVCIS:CSI06:1,2016-08-04T00:00:00Z,28.8667,-90.4833,32.39,11111222 
WAVCIS,ioos:station:WAVCIS:CSI06:1,2016-08-04T01:00:00Z,28.8667,-90.4833,29.74,11111222 
WAVCIS,ioos:station:WAVCIS:CSI06:1,2016-08-04T02:00:00Z,28.8667,-90.4833,29.53,11111222 
WAVCIS,ioos:station:WAVCIS:CSI06:1,2016-08-04T03:00:00Z,28.8667,-90.4833,29.55,11111222 
WAVCIS,ioos:station:WAVCIS:CSI06:1,2016-08-04T04:00:00Z,28.8667,-90.4833,29.64,11111222 
WAVCIS,ioos:station:WAVCIS:CSI06:1,2016-08-04T05:00:00Z,28.8667,-90.4833,29.76,11111222 
WAVCIS,ioos:station:WAVCIS:CSI06:1,2016-08-04T06:00:00Z,28.8667,-90.4833,29.73,11111222 
WAVCIS,ioos:station:WAVCIS:CSI06:1,2016-08-04T07:00:00Z,28.8667,-90.4833,29.86,11111222 
WAVCIS,ioos:station:WAVCIS:CSI06:1,2016-08-04T08:00:00Z,28.8667,-90.4833,29.97,11111222 
WAVCIS,ioos:station:WAVCIS:CSI06:1,2016-08-04T09:00:00Z,28.8667,-90.4833,29.99,11111222 
WAVCIS,ioos:station:WAVCIS:CSI06:1,2016-08-04T10:00:00Z,28.8667,-90.4833,29.96,11111222 
WAVCIS,ioos:station:WAVCIS:CSI06:1,2016-08-04T11:00:00Z,28.8667,-90.4833,29.92,11111222 
WAVCIS,ioos:station:WAVCIS:CSI06:1,2016-08-04T12:00:00Z,28.8667,-90.4833,30.02,11111222 
WAVCIS,ioos:station:WAVCIS:CSI06:1,2016-08-04T13:00:00Z,28.8667,-90.4833,31.54,11111222 
WAVCIS,ioos:station:WAVCIS:CSI06:1,2016-08-04T14:00:00Z,28.8667,-90.4833,30.32,11111222 
WAVCIS,ioos:station:WAVCIS:CSI06:1,2016-08-04T15:00:00Z,28.8667,-90.4833,30.52,11111222 
WAVCIS,ioos:station:WAVCIS:CSI06:1,2016-08-04T16:00:00Z,28.8667,-90.4833,31.42,11111222 
WAVCIS,ioos:station:WAVCIS:CSI06:1,2016-08-04T17:00:00Z,28.8667,-90.4833,32.53,11111222 
WAVCIS,ioos:station:WAVCIS:CSI06:1,2016-08-04T18:00:00Z,28.8667,-90.4833,30.75,11111222 
WAVCIS,ioos:station:WAVCIS:CSI06:1,2016-08-04T19:00:00Z,28.8667,-90.4833,31.31,11111222 
WAVCIS,ioos:station:WAVCIS:CSI06:1,2016-08-04T20:00:00Z,28.8667,-90.4833,30.17,11111222 
WAVCIS,ioos:station:WAVCIS:CSI06:1,2016-08-04T21:00:00Z,28.8667,-90.4833,30.62,11111222 
WAVCIS,ioos:station:WAVCIS:CSI06:1,2016-08-04T22:00:00Z,28.8667,-90.4833,30.92,11111222 
WAVCIS,ioos:station:WAVCIS:CSI06:1,2016-08-04T23:00:00Z,28.8667,-90.4833,31.54,11111222 
WAVCIS,ioos:station:WAVCIS:CSI06:1,2016-08-05T00:00:00Z,28.8667,-90.4833,33.18,11111222 
WAVCIS,ioos:station:WAVCIS:CSI06:1,2016-08-05T01:00:00Z,28.8667,-90.4833,30.44,11111222 
WAVCIS,ioos:station:WAVCIS:CSI06:1,2016-08-05T02:00:00Z,28.8667,-90.4833,30.24,11111222 
WAVCIS,ioos:station:WAVCIS:CSI06:1,2016-08-05T03:00:00Z,28.8667,-90.4833,30.26,11111222 
WAVCIS,ioos:station:WAVCIS:CSI06:1,2016-08-05T04:00:00Z,28.8667,-90.4833,30.21,11111222 
WAVCIS,ioos:station:WAVCIS:CSI06:1,2016-08-05T05:00:00Z,28.8667,-90.4833,30.18,11111222 
WAVCIS,ioos:station:WAVCIS:CSI06:1,2016-08-05T06:00:00Z,28.8667,-90.4833,30.18,11111222 
WAVCIS,ioos:station:WAVCIS:CSI06:1,2016-08-05T07:00:00Z,28.8667,-90.4833,29.96,11111222 
WAVCIS,ioos:station:WAVCIS:CSI06:1,2016-08-05T08:00:00Z,28.8667,-90.4833,30.1,11111222 
WAVCIS,ioos:station:WAVCIS:CSI06:1,2016-08-05T09:00:00Z,28.8667,-90.4833,30.1,11111222 
WAVCIS,ioos:station:WAVCIS:CSI06:1,2016-08-05T10:00:00Z,28.8667,-90.4833,29.97,11111222 
WAVCIS,ioos:station:WAVCIS:CSI06:1,2016-08-05T11:00:00Z,28.8667,-90.4833,30.35,11111222 
WAVCIS,ioos:station:WAVCIS:CSI06:1,2016-08-05T12:00:00Z,28.8667,-90.4833,30.26,11111222 
WAVCIS,ioos:station:WAVCIS:CSI06:1,2016-08-05T13:00:00Z,28.8667,-90.4833,30.41,11111222 
WAVCIS,ioos:station:WAVCIS:CSI06:1,2016-08-05T14:00:00Z,28.8667,-90.4833,29.78,11111222 
WAVCIS,ioos:station:WAVCIS:CSI06:1,2016-08-05T15:00:00Z,28.8667,-90.4833,28.25,11111222 
WAVCIS,ioos:station:WAVCIS:CSI06:1,2016-08-06T20:00:00Z,28.8667,-90.4833,30.1,11111222 
WAVCIS,ioos:station:WAVCIS:CSI06:1,2016-08-07T19:00:00Z,28.8667,-90.4833,30.6,11111222 
WAVCIS,ioos:station:WAVCIS:CSI06:1,2016-08-15T17:00:00Z,28.8667,-90.4833,29.28,11111222 
WAVCIS,ioos:station:WAVCIS:CSI06:1,2016-08-15T18:00:00Z,28.8667,-90.4833,29.33,11111222 
WAVCIS,ioos:station:WAVCIS:CSI06:1,2016-08-15T19:00:00Z,28.8667,-90.4833,29.48,11111222 
WAVCIS,ioos:station:WAVCIS:CSI06:1,2016-08-15T20:00:00Z,28.8667,-90.4833,27.61,11111222 
WAVCIS,ioos:station:WAVCIS:CSI06:1,2016-08-15T21:00:00Z,28.8667,-90.4833,28.23,11111222 
WAVCIS,ioos:station:WAVCIS:CSI06:1,2016-08-15T22:00:00Z,28.8667,-90.4833,28.93,11111222 
WAVCIS,ioos:station:WAVCIS:CSI06:1,2016-08-15T23:00:00Z,28.8667,-90.4833,29.78,11111222 
WAVCIS,ioos:station:WAVCIS:CSI06:1,2016-08-16T00:00:00Z,28.8667,-90.4833,29.63,11111222 
WAVCIS,ioos:station:WAVCIS:CSI06:1,2016-08-16T01:00:00Z,28.8667,-90.4833,29.42,11111222 
WAVCIS,ioos:station:WAVCIS:CSI06:1,2016-08-16T02:00:00Z,28.8667,-90.4833,29.39,11111222 
WAVCIS,ioos:station:WAVCIS:CSI06:1,2016-08-16T03:00:00Z,28.8667,-90.4833,26.95,11111222 
WAVCIS,ioos:station:WAVCIS:CSI06:1,2016-08-16T04:00:00Z,28.8667,-90.4833,24.33,11111222 
WAVCIS,ioos:station:WAVCIS:CSI06:1,2016-08-16T05:00:00Z,28.8667,-90.4833,27.38,11111222 
WAVCIS,ioos:station:WAVCIS:CSI06:1,2016-08-16T06:00:00Z,28.8667,-90.4833,27.27,11111222 
WAVCIS,ioos:station:WAVCIS:CSI06:1,2016-08-16T07:00:00Z,28.8667,-90.4833,28.2,11111222 
WAVCIS,ioos:station:WAVCIS:CSI06:1,2016-08-16T08:00:00Z,28.8667,-90.4833,27.4,11111222 
WAVCIS,ioos:station:WAVCIS:CSI06:1,2016-08-16T09:00:00Z,28.8667,-90.4833,27.96,11111222 
WAVCIS,ioos:station:WAVCIS:CSI06:1,2016-08-16T10:00:00Z,28.8667,-90.4833,28.07,11111222 
WAVCIS,ioos:station:WAVCIS:CSI06:1,2016-08-16T11:00:00Z,28.8667,-90.4833,28.63,11111222 
WAVCIS,ioos:station:WAVCIS:CSI06:1,2016-08-16T12:00:00Z,28.8667,-90.4833,28.92,11111222 
WAVCIS,ioos:station:WAVCIS:CSI06:1,2016-08-16T13:00:00Z,28.8667,-90.4833,29.01,11111222 
WAVCIS,ioos:station:WAVCIS:CSI06:1,2016-08-16T14:00:00Z,28.8667,-90.4833,29.04,11111222 
WAVCIS,ioos:station:WAVCIS:CSI06:1,2016-08-16T15:00:00Z,28.8667,-90.4833,29.07,11111222 
WAVCIS,ioos:station:WAVCIS:CSI06:1,2016-08-16T16:00:00Z,28.8667,-90.4833,29.26,11111222 
WAVCIS,ioos:station:WAVCIS:CSI06:1,2016-08-16T17:00:00Z,28.8667,-90.4833,29.06,11111222 
WAVCIS,ioos:station:WAVCIS:CSI06:1,2016-08-16T18:00:00Z,28.8667,-90.4833,29.32,11111222 
WAVCIS,ioos:station:WAVCIS:CSI06:1,2016-08-16T19:00:00Z,28.8667,-90.4833,29.42,11111222 
WAVCIS,ioos:station:WAVCIS:CSI06:1,2016-08-16T20:00:00Z,28.8667,-90.4833,29.66,11111222 
WAVCIS,ioos:station:WAVCIS:CSI06:1,2016-08-16T21:00:00Z,28.8667,-90.4833,29.7,11111222 
WAVCIS,ioos:station:WAVCIS:CSI06:1,2016-08-16T22:00:00Z,28.8667,-90.4833,29.76,11111222 
WAVCIS,ioos:station:WAVCIS:CSI06:1,2016-08-16T23:00:00Z,28.8667,-90.4833,29.99,11111222 
WAVCIS,ioos:station:WAVCIS:CSI06:1,2016-08-17T00:00:00Z,28.8667,-90.4833,29.71,11111222 
WAVCIS,ioos:station:WAVCIS:CSI06:1,2016-08-17T01:00:00Z,28.8667,-90.4833,29.56,11111222 
WAVCIS,ioos:station:WAVCIS:CSI06:1,2016-08-17T02:00:00Z,28.8667,-90.4833,29.32,11111222 
WAVCIS,ioos:station:WAVCIS:CSI06:1,2016-08-17T03:00:00Z,28.8667,-90.4833,29.39,11111222 
WAVCIS,ioos:station:WAVCIS:CSI06:1,2016-08-17T04:00:00Z,28.8667,-90.4833,29.52,11111222 
WAVCIS,ioos:station:WAVCIS:CSI06:1,2016-08-17T05:00:00Z,28.8667,-90.4833,29.01,11111222 
WAVCIS,ioos:station:WAVCIS:CSI06:1,2016-08-17T06:00:00Z,28.8667,-90.4833,28.92,11111222 
WAVCIS,ioos:station:WAVCIS:CSI06:1,2016-08-17T07:00:00Z,28.8667,-90.4833,29.21,11111222 
WAVCIS,ioos:station:WAVCIS:CSI06:1,2016-08-17T08:00:00Z,28.8667,-90.4833,29.17,11111222 
WAVCIS,ioos:station:WAVCIS:CSI06:1,2016-08-17T09:00:00Z,28.8667,-90.4833,28.94,11111222 
WAVCIS,ioos:station:WAVCIS:CSI06:1,2016-08-17T10:00:00Z,28.8667,-90.4833,29.09,11111222 
WAVCIS,ioos:station:WAVCIS:CSI06:1,2016-08-17T11:00:00Z,28.8667,-90.4833,28.99,11111222 
WAVCIS,ioos:station:WAVCIS:CSI06:1,2016-08-17T12:00:00Z,28.8667,-90.4833,29.03,11111222 
WAVCIS,ioos:station:WAVCIS:CSI06:1,2016-08-17T13:00:00Z,28.8667,-90.4833,29.16,11111222 
WAVCIS,ioos:station:WAVCIS:CSI06:1,2016-08-17T14:00:00Z,28.8667,-90.4833,29.43,11111222 
WAVCIS,ioos:station:WAVCIS:CSI06:1,2016-08-17T15:00:00Z,28.8667,-90.4833,29.46,11111222 
WAVCIS,ioos:station:WAVCIS:CSI06:1,2016-08-17T16:00:00Z,28.8667,-90.4833,29.55,11111222 
WAVCIS,ioos:station:WAVCIS:CSI06:1,2016-08-17T17:00:00Z,28.8667,-90.4833,29.62,11111222 
WAVCIS,ioos:station:WAVCIS:CSI06:1,2016-08-17T18:00:00Z,28.8667,-90.4833,29.74,11111222 
WAVCIS,ioos:station:WAVCIS:CSI06:1,2016-08-17T19:00:00Z,28.8667,-90.4833,29.82,11111222 
WAVCIS,ioos:station:WAVCIS:CSI06:1,2016-08-17T20:00:00Z,28.8667,-90.4833,29.86,11111222 
WAVCIS,ioos:station:WAVCIS:CSI06:1,2016-08-17T21:00:00Z,28.8667,-90.4833,29.84,11111222 
WAVCIS,ioos:station:WAVCIS:CSI06:1,2016-08-17T22:00:00Z,28.8667,-90.4833,30.0,11111222 
WAVCIS,ioos:station:WAVCIS:CSI06:1,2016-08-17T23:00:00Z,28.8667,-90.4833,30.22,11111222 
WAVCIS,ioos:station:WAVCIS:CSI06:1,2016-08-18T00:00:00Z,28.8667,-90.4833,29.79,11111222 
WAVCIS,ioos:station:WAVCIS:CSI06:1,2016-08-18T01:00:00Z,28.8667,-90.4833,29.63,11111222 
WAVCIS,ioos:station:WAVCIS:CSI06:1,2016-08-18T02:00:00Z,28.8667,-90.4833,29.67,11111222 
WAVCIS,ioos:station:WAVCIS:CSI06:1,2016-08-18T03:00:00Z,28.8667,-90.4833,29.64,11111222 
WAVCIS,ioos:station:WAVCIS:CSI06:1,2016-08-18T04:00:00Z,28.8667,-90.4833,29.59,11111222 
WAVCIS,ioos:station:WAVCIS:CSI06:1,2016-08-18T05:00:00Z,28.8667,-90.4833,29.44,11111222 
WAVCIS,ioos:station:WAVCIS:CSI06:1,2016-08-18T06:00:00Z,28.8667,-90.4833,29.16,11111222 
WAVCIS,ioos:station:WAVCIS:CSI06:1,2016-08-18T07:00:00Z,28.8667,-90.4833,29.12,11111222 
WAVCIS,ioos:station:WAVCIS:CSI06:1,2016-08-18T08:00:00Z,28.8667,-90.4833,29.21,11111222 
WAVCIS,ioos:station:WAVCIS:CSI06:1,2016-08-18T09:00:00Z,28.8667,-90.4833,29.04,11111222 
WAVCIS,ioos:station:WAVCIS:CSI06:1,2016-08-18T10:00:00Z,28.8667,-90.4833,29.02,11111222 
WAVCIS,ioos:station:WAVCIS:CSI06:1,2016-08-18T11:00:00Z,28.8667,-90.4833,28.84,11111222 
WAVCIS,ioos:station:WAVCIS:CSI06:1,2016-08-18T12:00:00Z,28.8667,-90.4833,29.01,11111222 
WAVCIS,ioos:station:WAVCIS:CSI06:1,2016-08-18T13:00:00Z,28.8667,-90.4833,29.29,11111222 
WAVCIS,ioos:station:WAVCIS:CSI06:1,2016-08-18T14:00:00Z,28.8667,-90.4833,29.57,11111222 
WAVCIS,ioos:station:WAVCIS:CSI06:1,2016-08-18T15:00:00Z,28.8667,-90.4833,29.46,11111222 
WAVCIS,ioos:station:WAVCIS:CSI06:1,2016-08-18T16:00:00Z,28.8667,-90.4833,29.59,11111222 
WAVCIS,ioos:station:WAVCIS:CSI06:1,2016-08-18T17:00:00Z,28.8667,-90.4833,29.65,11111222 
WAVCIS,ioos:station:WAVCIS:CSI06:1,2016-08-18T18:00:00Z,28.8667,-90.4833,29.29,11111222 
WAVCIS,ioos:station:WAVCIS:CSI06:1,2016-08-18T19:00:00Z,28.8667,-90.4833,29.54,11111222 
WAVCIS,ioos:station:WAVCIS:CSI06:1,2016-08-18T20:00:00Z,28.8667,-90.4833,29.84,11111222 
WAVCIS,ioos:station:WAVCIS:CSI06:1,2016-08-18T21:00:00Z,28.8667,-90.4833,29.8,11111222 
WAVCIS,ioos:station:WAVCIS:CSI06:1,2016-08-18T22:00:00Z,28.8667,-90.4833,29.8,11111222 
WAVCIS,ioos:station:WAVCIS:CSI06:1,2016-08-18T23:00:00Z,28.8667,-90.4833,29.89,11111222 
WAVCIS,ioos:station:WAVCIS:CSI06:1,2016-08-19T00:00:00Z,28.8667,-90.4833,29.61,11111222 
WAVCIS,ioos:station:WAVCIS:CSI06:1,2016-08-19T01:00:00Z,28.8667,-90.4833,29.55,11111222 
WAVCIS,ioos:station:WAVCIS:CSI06:1,2016-08-19T02:00:00Z,28.8667,-90.4833,29.42,11111222 
WAVCIS,ioos:station:WAVCIS:CSI06:1,2016-08-19T03:00:00Z,28.8667,-90.4833,29.41,11111222 
WAVCIS,ioos:station:WAVCIS:CSI06:1,2016-08-19T04:00:00Z,28.8667,-90.4833,29.36,11111222 
WAVCIS,ioos:station:WAVCIS:CSI06:1,2016-08-19T05:00:00Z,28.8667,-90.4833,29.33,11111222 
WAVCIS,ioos:station:WAVCIS:CSI06:1,2016-08-19T06:00:00Z,28.8667,-90.4833,29.15,11111222 
WAVCIS,ioos:station:WAVCIS:CSI06:1,2016-08-19T07:00:00Z,28.8667,-90.4833,29.15,11111222 
WAVCIS,ioos:station:WAVCIS:CSI06:1,2016-08-19T08:00:00Z,28.8667,-90.4833,29.13,11111222 
WAVCIS,ioos:station:WAVCIS:CSI06:1,2016-08-19T09:00:00Z,28.8667,-90.4833,29.1,11111222 
WAVCIS,ioos:station:WAVCIS:CSI06:1,2016-08-19T10:00:00Z,28.8667,-90.4833,29.09,11111222 
WAVCIS,ioos:station:WAVCIS:CSI06:1,2016-08-19T11:00:00Z,28.8667,-90.4833,29.02,11111222 
WAVCIS,ioos:station:WAVCIS:CSI06:1,2016-08-19T12:00:00Z,28.8667,-90.4833,29.03,11111222 
WAVCIS,ioos:station:WAVCIS:CSI06:1,2016-08-19T13:00:00Z,28.8667,-90.4833,29.1,11111222 
WAVCIS,ioos:station:WAVCIS:CSI06:1,2016-08-19T14:00:00Z,28.8667,-90.4833,29.49,11111222 
WAVCIS,ioos:station:WAVCIS:CSI06:1,2016-08-19T15:00:00Z,28.8667,-90.4833,29.42,11111222 
WAVCIS,ioos:station:WAVCIS:CSI06:1,2016-08-19T16:00:00Z,28.8667,-90.4833,29.87,11111222 
WAVCIS,ioos:station:WAVCIS:CSI06:1,2016-08-19T17:00:00Z,28.8667,-90.4833,30.07,11111222 
WAVCIS,ioos:station:WAVCIS:CSI06:1,2016-08-19T18:00:00Z,28.8667,-90.4833,29.8,11111222 
WAVCIS,ioos:station:WAVCIS:CSI06:1,2016-08-19T19:00:00Z,28.8667,-90.4833,29.78,11111222 
WAVCIS,ioos:station:WAVCIS:CSI06:1,2016-08-19T20:00:00Z,28.8667,-90.4833,29.94,11111222 
WAVCIS,ioos:station:WAVCIS:CSI06:1,2016-08-19T21:00:00Z,28.8667,-90.4833,30.28,11111222 
WAVCIS,ioos:station:WAVCIS:CSI06:1,2016-08-19T22:00:00Z,28.8667,-90.4833,29.35,11111222 
WAVCIS,ioos:station:WAVCIS:CSI06:1,2016-08-19T23:00:00Z,28.8667,-90.4833,30.06,11111222 
WAVCIS,ioos:station:WAVCIS:CSI06:1,2016-08-20T00:00:00Z,28.8667,-90.4833,29.86,11111222 
WAVCIS,ioos:station:WAVCIS:CSI06:1,2016-08-20T01:00:00Z,28.8667,-90.4833,29.73,11111222 
WAVCIS,ioos:station:WAVCIS:CSI06:1,2016-08-20T02:00:00Z,28.8667,-90.4833,29.64,11111222 
WAVCIS,ioos:station:WAVCIS:CSI06:1,2016-08-20T03:00:00Z,28.8667,-90.4833,29.54,11111222 
WAVCIS,ioos:station:WAVCIS:CSI06:1,2016-08-20T04:00:00Z,28.8667,-90.4833,29.44,11111222 
WAVCIS,ioos:station:WAVCIS:CSI06:1,2016-08-20T05:00:00Z,28.8667,-90.4833,29.45,11111222 
WAVCIS,ioos:station:WAVCIS:CSI06:1,2016-08-20T06:00:00Z,28.8667,-90.4833,29.47,11111222 
WAVCIS,ioos:station:WAVCIS:CSI06:1,2016-08-20T07:00:00Z,28.8667,-90.4833,29.34,11111222 
WAVCIS,ioos:station:WAVCIS:CSI06:1,2016-08-20T08:00:00Z,28.8667,-90.4833,29.33,11111222 
WAVCIS,ioos:station:WAVCIS:CSI06:1,2016-08-20T09:00:00Z,28.8667,-90.4833,29.44,11111222 
WAVCIS,ioos:station:WAVCIS:CSI06:1,2016-08-20T10:00:00Z,28.8667,-90.4833,29.36,11111222 
WAVCIS,ioos:station:WAVCIS:CSI06:1,2016-08-20T11:00:00Z,28.8667,-90.4833,29.46,11111222 
WAVCIS,ioos:station:WAVCIS:CSI06:1,2016-08-20T12:00:00Z,28.8667,-90.4833,29.36,11111222 
WAVCIS,ioos:station:WAVCIS:CSI06:1,2016-08-20T13:00:00Z,28.8667,-90.4833,29.65,11111222 
WAVCIS,ioos:station:WAVCIS:CSI06:1,2016-08-20T14:00:00Z,28.8667,-90.4833,29.66,11111222 
WAVCIS,ioos:station:WAVCIS:CSI06:1,2016-08-20T15:00:00Z,28.8667,-90.4833,29.65,11111222 
WAVCIS,ioos:station:WAVCIS:CSI06:1,2016-08-20T16:00:00Z,28.8667,-90.4833,29.92,11111222 
WAVCIS,ioos:station:WAVCIS:CSI06:1,2016-08-20T17:00:00Z,28.8667,-90.4833,28.87,11111222 
WAVCIS,ioos:station:WAVCIS:CSI06:1,2016-08-20T18:00:00Z,28.8667,-90.4833,26.11,11111222 
WAVCIS,ioos:station:WAVCIS:CSI06:1,2016-08-20T19:00:00Z,28.8667,-90.4833,29.5,11111222 
WAVCIS,ioos:station:WAVCIS:CSI06:1,2016-08-20T20:00:00Z,28.8667,-90.4833,29.79,11111222 
WAVCIS,ioos:station:WAVCIS:CSI06:1,2016-08-20T21:00:00Z,28.8667,-90.4833,30.39,11111222 
WAVCIS,ioos:station:WAVCIS:CSI06:1,2016-08-20T22:00:00Z,28.8667,-90.4833,30.11,11111222 
WAVCIS,ioos:station:WAVCIS:CSI06:1,2016-08-20T23:00:00Z,28.8667,-90.4833,29.96,11111222 
WAVCIS,ioos:station:WAVCIS:CSI06:1,2016-08-21T00:00:00Z,28.8667,-90.4833,29.95,11111222 
WAVCIS,ioos:station:WAVCIS:CSI06:1,2016-08-21T01:00:00Z,28.8667,-90.4833,29.71,11111222 
WAVCIS,ioos:station:WAVCIS:CSI06:1,2016-08-21T02:00:00Z,28.8667,-90.4833,29.63,11111222 
WAVCIS,ioos:station:WAVCIS:CSI06:1,2016-08-21T03:00:00Z,28.8667,-90.4833,29.75,11111222 
WAVCIS,ioos:station:WAVCIS:CSI06:1,2016-08-21T04:00:00Z,28.8667,-90.4833,29.65,11111222 
WAVCIS,ioos:station:WAVCIS:CSI06:1,2016-08-21T05:00:00Z,28.8667,-90.4833,29.56,11111222 
WAVCIS,ioos:station:WAVCIS:CSI06:1,2016-08-21T06:00:00Z,28.8667,-90.4833,29.55,11111222 
WAVCIS,ioos:station:WAVCIS:CSI06:1,2016-08-21T07:00:00Z,28.8667,-90.4833,29.55,11111222 
WAVCIS,ioos:station:WAVCIS:CSI06:1,2016-08-21T08:00:00Z,28.8667,-90.4833,29.42,11111222 
WAVCIS,ioos:station:WAVCIS:CSI06:1,2016-08-21T09:00:00Z,28.8667,-90.4833,29.31,11111222 
WAVCIS,ioos:station:WAVCIS:CSI06:1,2016-08-21T10:00:00Z,28.8667,-90.4833,29.12,11111222 
WAVCIS,ioos:station:WAVCIS:CSI06:1,2016-08-21T11:00:00Z,28.8667,-90.4833,29.39,11111222 
WAVCIS,ioos:station:WAVCIS:CSI06:1,2016-08-21T12:00:00Z,28.8667,-90.4833,29.5,11111222 
WAVCIS,ioos:station:WAVCIS:CSI06:1,2016-08-21T13:00:00Z,28.8667,-90.4833,29.99,11111222 
WAVCIS,ioos:station:WAVCIS:CSI06:1,2016-08-21T14:00:00Z,28.8667,-90.4833,30.11,11111222 
WAVCIS,ioos:station:WAVCIS:CSI06:1,2016-08-21T15:00:00Z,28.8667,-90.4833,30.28,11111222 
WAVCIS,ioos:station:WAVCIS:CSI06:1,2016-08-21T16:00:00Z,28.8667,-90.4833,30.23,11111222 
WAVCIS,ioos:station:WAVCIS:CSI06:1,2016-08-21T17:00:00Z,28.8667,-90.4833,29.59,11111222 
WAVCIS,ioos:station:WAVCIS:CSI06:1,2016-08-21T18:00:00Z,28.8667,-90.4833,30.16,11111222 
WAVCIS,ioos:station:WAVCIS:CSI06:1,2016-08-21T19:00:00Z,28.8667,-90.4833,30.06,11111222 
WAVCIS,ioos:station:WAVCIS:CSI06:1,2016-08-21T20:00:00Z,28.8667,-90.4833,30.01,11111222 
WAVCIS,ioos:station:WAVCIS:CSI06:1,2016-08-21T21:00:00Z,28.8667,-90.4833,30.4,11111222 
WAVCIS,ioos:station:WAVCIS:CSI06:1,2016-08-21T22:00:00Z,28.8667,-90.4833,30.3,11111222 
WAVCIS,ioos:station:WAVCIS:CSI06:1,2016-08-21T23:00:00Z,28.8667,-90.4833,30.67,11111222 
WAVCIS,ioos:station:WAVCIS:CSI06:1,2016-08-22T00:00:00Z,28.8667,-90.4833,30.38,11111222 
WAVCIS,ioos:station:WAVCIS:CSI06:1,2016-08-22T01:00:00Z,28.8667,-90.4833,30.07,11111222 
WAVCIS,ioos:station:WAVCIS:CSI06:1,2016-08-22T02:00:00Z,28.8667,-90.4833,29.93,11111222 
WAVCIS,ioos:station:WAVCIS:CSI06:1,2016-08-22T03:00:00Z,28.8667,-90.4833,29.81,11111222 